• In Deutschland
  • Länderverzeichnis
  • Für 7 Tage
  • Wassertemperatur
  • Satellitenkarten
  • Wetterkarte
  • Widgets
  • user-avatar
    Anmelden

    Stündliche Wetter Flörsheim

    Heute, 26 September, Mittwoch

    Zeit Temperatur Niederschläge Wind Luftdruck Luftfeuchtigkeit
    00:00 +9°C° 0 mm 1 m/S 769 mmHg 66%
    01:00 +9°C° 0 mm 1 m/S 768 mmHg 66%
    02:00 +8°C° 0 mm 1 m/S 768 mmHg 67%
    03:00 +8°C° 0 mm 1 m/S 768 mmHg 67%
    04:00 +8°C° 0 mm 1 m/S 768 mmHg 67%
    05:00 +8°C° 0 mm 1 m/S 768 mmHg 67%
    06:00 +8°C° 0 mm 1 m/S 768 mmHg 67%
    07:00 +8°C° 0 mm 1 m/S 767 mmHg 67%
    08:00 +10°C° 0 mm 1 m/S 767 mmHg 59%
    09:00 +12°C° 0 mm 1 m/S 767 mmHg 52%
    10:00 +14°C° 0 mm 1 m/S 767 mmHg 45%
    11:00 +16°C° 0 mm 1 m/S 767 mmHg 40%
    12:00 +18°C° 0 mm 1 m/S 767 mmHg 36%
    13:00 +20°C° 0 mm 1 m/S 766 mmHg 32%
    14:00 +20°C° 0 mm 1 m/S 766 mmHg 32%
    15:00 +21°C° 0 mm 1 m/S 766 mmHg 32%
    16:00 +21°C° 0 mm 1 m/S 765 mmHg 32%
    17:00 +19°C° 0 mm 1 m/S 765 mmHg 36%
    18:00 +15°C° 0 mm 0 m/S 765 mmHg 40%
    19:00 +13°C° 0 mm 0 m/S 765 mmHg 45%
    20:00 +13°C° 0 mm 0 m/S 765 mmHg 46%
    21:00 +12°C° 0 mm 0 m/S 766 mmHg 47%
    22:00 +12°C° 0 mm 0 m/S 766 mmHg 48%
    23:00 +11°C° 0 mm 0 m/S 766 mmHg 49%

    Morgen, 27 September, Donnerstag

    Zeit Temperatur Niederschläge Wind Luftdruck Luftfeuchtigkeit
    00:00 +11°C° 0 mm 0 m/S 766 mmHg 50%
    01:00 +11°C° 0 mm 0 m/S 766 mmHg 51%
    02:00 +11°C° 0 mm 0 m/S 765 mmHg 52%
    03:00 +10°C° 0 mm 0 m/S 765 mmHg 53%
    04:00 +10°C° 0 mm 0 m/S 765 mmHg 54%
    05:00 +10°C° 0 mm 0 m/S 765 mmHg 54%
    06:00 +10°C° 0 mm 0 m/S 764 mmHg 55%
    07:00 +10°C° 0 mm 0 m/S 764 mmHg 56%
    08:00 +13°C° 0 mm 1 m/S 764 mmHg 50%
    09:00 +16°C° 0 mm 1 m/S 764 mmHg 45%
    10:00 +19°C° 0 mm 1 m/S 764 mmHg 40%
    11:00 +20°C° 0 mm 1 m/S 763 mmHg 38%
    12:00 +21°C° 0 mm 2 m/S 763 mmHg 35%
    13:00 +23°C° 0 mm 2 m/S 762 mmHg 33%
    14:00 +24°C° 0 mm 2 m/S 761 mmHg 35%
    15:00 +24°C° 0 mm 2 m/S 761 mmHg 37%
    16:00 +24°C° 0 mm 2 m/S 760 mmHg 39%
    17:00 +21°C° 0 mm 2 m/S 760 mmHg 46%
    18:00 +20°C° 0 mm 1 m/S 759 mmHg 52%
    19:00 +18°C° 0 mm 1 m/S 759 mmHg 59%
    20:00 +16°C° 0 mm 1 m/S 759 mmHg 62%
    21:00 +15°C° 0 mm 1 m/S 759 mmHg 66%
    22:00 +15°C° 0 mm 1 m/S 759 mmHg 70%
    23:00 +14°C° 0 mm 1 m/S 759 mmHg 72%

    übermorgen, 28 September, Freitag

    Zeit Temperatur Niederschläge Wind Luftdruck Luftfeuchtigkeit
    00:00 +14°C° 0 mm 1 m/S 759 mmHg 75%
    01:00 +13°C° 0 mm 1 m/S 759 mmHg 78%
    02:00 +13°C° 0 mm 1 m/S 758 mmHg 79%
    03:00 +12°C° 0 mm 1 m/S 758 mmHg 80%
    04:00 +12°C° 0 mm 1 m/S 758 mmHg 82%
    05:00 +12°C° 0 mm 1 m/S 758 mmHg 82%
    06:00 +12°C° 0 mm 1 m/S 758 mmHg 82%
    07:00 +11°C° 0 mm 1 m/S 758 mmHg 82%
    08:00 +13°C° 0 mm 1 m/S 758 mmHg 74%
    09:00 +15°C° 0 mm 1 m/S 758 mmHg 66%
    10:00 +17°C° 0 mm 2 m/S 759 mmHg 58%
    11:00 +18°C° 0 mm 2 m/S 758 mmHg 56%
    12:00 +19°C° 0 mm 2 m/S 758 mmHg 54%
    13:00 +20°C° 0 mm 2 m/S 758 mmHg 52%
    14:00 +19°C° 0 mm 3 m/S 758 mmHg 55%
    15:00 +18°C° 0 mm 3 m/S 758 mmHg 59%
    16:00 +18°C° 0 mm 4 m/S 757 mmHg 63%
    17:00 +17°C° 0 mm 4 m/S 758 mmHg 67%
    18:00 +14°C° 0 mm 3 m/S 758 mmHg 71%
    19:00 +13°C° 0 mm 3 m/S 758 mmHg 75%
    20:00 +12°C° 0 mm 3 m/S 759 mmHg 74%
    21:00 +12°C° 0 mm 3 m/S 760 mmHg 74%
    22:00 +11°C° 0 mm 3 m/S 760 mmHg 73%
    23:00 +10°C° 0 mm 3 m/S 760 mmHg 74%

    29 September, Samstag

    Zeit Temperatur Niederschläge Wind Luftdruck Luftfeuchtigkeit
    00:00 +9°C° 0 mm 3 m/S 761 mmHg 75%
    01:00 +9°C° 0 mm 3 m/S 761 mmHg 76%
    02:00 +8°C° 0 mm 3 m/S 761 mmHg 77%
    03:00 +8°C° 0 mm 2 m/S 761 mmHg 78%
    04:00 +7°C° 0 mm 2 m/S 762 mmHg 78%
    05:00 +7°C° 0 mm 2 m/S 762 mmHg 79%
    06:00 +7°C° 0 mm 2 m/S 762 mmHg 79%
    07:00 +7°C° 0 mm 2 m/S 762 mmHg 79%
    08:00 +8°C° 0 mm 2 m/S 763 mmHg 71%
    09:00 +10°C° 0 mm 3 m/S 763 mmHg 62%
    10:00 +12°C° 0 mm 3 m/S 763 mmHg 54%
    11:00 +13°C° 0 mm 3 m/S 763 mmHg 50%
    12:00 +14°C° 0 mm 3 m/S 762 mmHg 46%
    13:00 +16°C° 0 mm 3 m/S 762 mmHg 41%
    14:00 +16°C° 0 mm 3 m/S 762 mmHg 42%
    15:00 +16°C° 0 mm 3 m/S 762 mmHg 42%
    16:00 +16°C° 0 mm 3 m/S 761 mmHg 43%
    17:00 +13°C° 0 mm 3 m/S 762 mmHg 48%
    18:00 +13°C° 0 mm 2 m/S 762 mmHg 54%
    19:00 +12°C° 0 mm 2 m/S 762 mmHg 59%
    20:00 +10°C° 0 mm 2 m/S 762 mmHg 62%
    21:00 +9°C° 0 mm 2 m/S 762 mmHg 64%
    22:00 +9°C° 0 mm 2 m/S 762 mmHg 66%
    23:00 +8°C° 0 mm 2 m/S 762 mmHg 67%

    30 September, Sonntag

    Zeit Temperatur Niederschläge Wind Luftdruck Luftfeuchtigkeit
    00:00 +8°C° 0 mm 2 m/S 761 mmHg 68%
    01:00 +7°C° 0 mm 2 m/S 761 mmHg 69%
    02:00 +7°C° 0 mm 2 m/S 761 mmHg 70%
    03:00 +7°C° 0 mm 2 m/S 761 mmHg 71%
    04:00 +7°C° 0 mm 1 m/S 760 mmHg 72%
    05:00 +7°C° 0 mm 1 m/S 760 mmHg 73%
    06:00 +7°C° 0 mm 1 m/S 760 mmHg 73%
    07:00 +7°C° 0 mm 1 m/S 760 mmHg 73%
    08:00 +8°C° 0 mm 2 m/S 760 mmHg 66%
    09:00 +10°C° 0 mm 2 m/S 759 mmHg 58%
    10:00 +13°C° 0 mm 2 m/S 759 mmHg 50%
    11:00 +14°C° 0 mm 2 m/S 758 mmHg 46%
    12:00 +15°C° 0 mm 2 m/S 758 mmHg 41%
    13:00 +17°C° 0 mm 2 m/S 757 mmHg 37%
    14:00 +17°C° 0 mm 2 m/S 757 mmHg 37%
    15:00 +17°C° 0 mm 2 m/S 756 mmHg 36%
    16:00 +17°C° 0 mm 2 m/S 756 mmHg 36%
    17:00 +16°C° 0 mm 2 m/S 755 mmHg 41%
    18:00 +14°C° 0 mm 1 m/S 755 mmHg 46%
    19:00 +12°C° 0 mm 1 m/S 755 mmHg 51%
    20:00 +12°C° 0 mm 1 m/S 755 mmHg 53%
    21:00 +11°C° 0 mm 1 m/S 755 mmHg 55%
    22:00 +10°C° 0 mm 1 m/S 755 mmHg 57%
    23:00 +10°C° 0 mm 1 m/S 755 mmHg 59%

    1 Oktober, Montag

    Zeit Temperatur Niederschläge Wind Luftdruck Luftfeuchtigkeit
    00:00 +10°C° 0 mm 1 m/S 754 mmHg 61%
    01:00 +9°C° 0 mm 1 m/S 754 mmHg 63%
    02:00 +9°C° 0 mm 1 m/S 753 mmHg 65%
    03:00 +8°C° 0 mm 1 m/S 753 mmHg 66%
    04:00 +8°C° 0 mm 1 m/S 753 mmHg 68%
    05:00 +8°C° 0 mm 1 m/S 753 mmHg 69%
    06:00 +8°C° 0 mm 1 m/S 753 mmHg 71%
    07:00 +7°C° 0 mm 1 m/S 752 mmHg 72%
    08:00 +10°C° 0 mm 1 m/S 752 mmHg 65%
    09:00 +12°C° 0 mm 1 m/S 752 mmHg 58%
    10:00 +14°C° 0 mm 1 m/S 751 mmHg 51%
    11:00 +15°C° 0 mm 1 m/S 751 mmHg 48%
    12:00 +16°C° 0 mm 2 m/S 750 mmHg 46%
    13:00 +17°C° 0 mm 2 m/S 750 mmHg 43%
    14:00 +16°C° 0 mm 2 m/S 749 mmHg 44%
    15:00 +16°C° 0 mm 2 m/S 749 mmHg 45%
    16:00 +16°C° 0 mm 3 m/S 749 mmHg 47%
    17:00 +15°C° 0.1 mm 2 m/S 749 mmHg 53%
    18:00 +14°C° 0.1 mm 2 m/S 749 mmHg 59%
    19:00 +13°C° 0.1 mm 2 m/S 749 mmHg 66%
    20:00 +12°C° 0.2 mm 2 m/S 749 mmHg 71%
    21:00 +10°C° 0.2 mm 3 m/S 750 mmHg 76%
    22:00 +10°C° 0.2 mm 3 m/S 750 mmHg 81%
    23:00 +9°C° 0.1 mm 3 m/S 750 mmHg 83%
    Mehr zeigen